TimeEDT,TemperatureF,Dew PointF,Humidity,Sea Level PressureIn,VisibilityMPH,Wind Direction,Wind SpeedMPH,Gust SpeedMPH,PrecipitationIn,Events,Conditions,WindDirDegrees,DateUTC
12:51 AM,48.9,39.9,71,29.94,10.0,WSW,5.8,-,N/A,,Mostly Cloudy,250,2011-10-02 04:51:00
1:51 AM,48.9,39.0,69,29.94,10.0,West,6.9,-,N/A,,Mostly Cloudy,260,2011-10-02 05:51:00
2:51 AM,48.9,39.9,71,29.93,10.0,WSW,5.8,-,N/A,,Mostly Cloudy,250,2011-10-02 06:51:00
3:51 AM,48.0,39.9,74,29.92,10.0,West,6.9,-,N/A,,Mostly Cloudy,260,2011-10-02 07:51:00
4:51 AM,46.9,39.9,77,29.93,10.0,West,5.8,-,N/A,,Partly Cloudy,260,2011-10-02 08:51:00
5:51 AM,46.0,39.9,79,29.95,10.0,West,3.5,-,N/A,,Partly Cloudy,270,2011-10-02 09:51:00
6:51 AM,48.0,41.0,77,29.96,10.0,West,3.5,-,N/A,,Mostly Cloudy,270,2011-10-02 10:51:00
7:51 AM,48.0,41.0,77,29.97,10.0,West,4.6,-,N/A,,Mostly Cloudy,260,2011-10-02 11:51:00
8:51 AM,51.1,39.9,66,29.97,10.0,NW,9.2,16.1,N/A,,Scattered Clouds,310,2011-10-02 12:51:00
9:51 AM,55.0,37.9,53,29.98,10.0,NW,10.4,20.7,N/A,,Scattered Clouds,320,2011-10-02 13:51:00
10:51 AM,55.9,34.0,44,29.99,10.0,NW,11.5,25.3,N/A,,Scattered Clouds,310,2011-10-02 14:51:00
11:51 AM,55.9,34.0,44,29.99,10.0,NW,5.8,-,N/A,,Mostly Cloudy,320,2011-10-02 15:51:00
12:51 PM,57.0,34.0,42,29.99,10.0,WNW,9.2,-,N/A,,Mostly Cloudy,300,2011-10-02 16:51:00
1:51 PM,57.9,32.0,37,29.97,10.0,NW,9.2,19.6,N/A,,Mostly Cloudy,310,2011-10-02 17:51:00
2:51 PM,61.0,34.0,36,29.97,10.0,Variable,6.9,20.7,N/A,,Scattered Clouds,0,2011-10-02 18:51:00
3:51 PM,61.0,34.0,36,29.94,10.0,NW,11.5,18.4,N/A,,Scattered Clouds,310,2011-10-02 19:51:00
4:51 PM,61.0,36.0,39,29.96,10.0,Variable,6.9,-,N/A,,Scattered Clouds,0,2011-10-02 20:51:00
5:51 PM,62.1,36.0,38,29.97,10.0,NW,5.8,-,N/A,,Mostly Cloudy,320,2011-10-02 21:51:00
6:51 PM,57.9,36.0,44,29.99,10.0,Calm,Calm,-,N/A,,Mostly Cloudy,0,2011-10-02 22:51:00
7:51 PM,55.0,39.9,57,30.01,10.0,NNE,3.5,-,N/A,,Mostly Cloudy,30,2011-10-02 23:51:00
8:51 PM,54.0,39.0,57,30.03,10.0,Calm,Calm,-,N/A,,Scattered Clouds,0,2011-10-03 00:51:00
9:51 PM,48.0,42.1,80,30.04,10.0,Calm,Calm,-,N/A,,Scattered Clouds,0,2011-10-03 01:51:00
10:51 PM,48.0,41.0,77,30.06,10.0,Calm,Calm,-,N/A,,Scattered Clouds,0,2011-10-03 02:51:00
11:51 PM,48.2,41.0,76,30.06,10.0,Calm,Calm,-,N/A,,Scattered Clouds,0,2011-10-03 03:51:00